When you browse on this site, cookies collect data to enhance your experience and personalize the content and advertising you see.
Visit our Privacy Policy to learn more. By continuing to use the site, you agree to this use of cookies and data.
  • In Hungary
  • List of Countries
  • For 7 days
  • Water Temperature
  • Satellite Maps
  • Weather Map
  • News
  • Weather Widgets
  • user-avatar
    Login

    Hourly Weather Djandje

    Today, 23 February, Saturday

    Time Temperature Precipitation Wind Pressure Humidity
    00:00 +30°C° 0 mm 1 mps 719 mmHg 14%
    01:00 +30°C° 0 mm 1 mps 718 mmHg 13%
    02:00 +29°C° 0 mm 1 mps 718 mmHg 13%
    03:00 +28°C° 0 mm 1 mps 718 mmHg 12%
    04:00 +28°C° 0 mm 1 mps 718 mmHg 16%
    05:00 +27°C° 0 mm 1 mps 718 mmHg 19%
    06:00 +26°C° 0 mm 1 mps 718 mmHg 27%
    07:00 +29°C° 0 mm 1 mps 719 mmHg 29%
    08:00 +31°C° 0 mm 1 mps 719 mmHg 30%
    09:00 +33°C° 0 mm 1 mps 720 mmHg 32%
    10:00 +36°C° 0 mm 1 mps 720 mmHg 25%
    11:00 +38°C° 0 mm 0 mps 720 mmHg 18%
    12:00 +41°C° 0 mm 0 mps 719 mmHg 11%
    13:00 +40°C° 0 mm 0 mps 719 mmHg 11%
    14:00 +43°C° 0 mm 1 mps 718 mmHg 10%
    15:00 +43°C° 0 mm 1 mps 717 mmHg 10%
    16:00 +41°C° 0 mm 1 mps 717 mmHg 10%
    17:00 +39°C° 0 mm 1 mps 716 mmHg 10%
    18:00 +36°C° 0 mm 1 mps 716 mmHg 11%
    19:00 +35°C° 0 mm 1 mps 716 mmHg 10%
    20:00 +33°C° 0 mm 1 mps 717 mmHg 10%
    21:00 +32°C° 0 mm 1 mps 717 mmHg 9%
    22:00 +31°C° 0 mm 1 mps 717 mmHg 11%
    23:00 +30°C° 0 mm 1 mps 717 mmHg 13%

    Tomorrow, 24 February, Sunday

    Time Temperature Precipitation Wind Pressure Humidity
    00:00 +29°C° 0 mm 1 mps 717 mmHg 15%
    01:00 +29°C° 0 mm 1 mps 717 mmHg 22%
    02:00 +28°C° 0 mm 1 mps 716 mmHg 30%
    03:00 +28°C° 0 mm 1 mps 716 mmHg 37%
    04:00 +27°C° 0 mm 1 mps 716 mmHg 44%
    05:00 +27°C° 0 mm 1 mps 717 mmHg 51%
    06:00 +27°C° 0 mm 1 mps 717 mmHg 58%
    07:00 +28°C° 0 mm 1 mps 717 mmHg 57%
    08:00 +30°C° 0 mm 2 mps 718 mmHg 55%
    09:00 +32°C° 0 mm 2 mps 719 mmHg 54%
    10:00 +35°C° 0 mm 2 mps 719 mmHg 45%
    11:00 +37°C° 0 mm 2 mps 718 mmHg 36%
    12:00 +39°C° 0 mm 2 mps 718 mmHg 27%
    13:00 +39°C° 0 mm 2 mps 717 mmHg 27%
    14:00 +38°C° 0 mm 2 mps 716 mmHg 28%
    15:00 +38°C° 0 mm 3 mps 715 mmHg 29%
    16:00 +37°C° 0 mm 2 mps 715 mmHg 31%
    17:00 +36°C° 0 mm 2 mps 715 mmHg 34%
    18:00 +36°C° 0 mm 2 mps 715 mmHg 36%
    19:00 +35°C° 0.1 mm 2 mps 716 mmHg 38%
    20:00 +33°C° 0.1 mm 1 mps 717 mmHg 40%
    21:00 +32°C° 0.1 mm 1 mps 717 mmHg 42%
    22:00 +31°C° 0.3 mm 1 mps 717 mmHg 45%
    23:00 +31°C° 0.3 mm 1 mps 717 mmHg 48%

    Day after tomorrow, 25 February, Monday

    Time Temperature Precipitation Wind Pressure Humidity
    00:00 +30°C° 0.3 mm 1 mps 717 mmHg 51%
    01:00 +29°C° 0.2 mm 1 mps 717 mmHg 54%
    02:00 +29°C° 0.2 mm 1 mps 716 mmHg 56%
    03:00 +28°C° 0.2 mm 1 mps 716 mmHg 58%
    04:00 +28°C° 0 mm 1 mps 716 mmHg 60%
    05:00 +27°C° 0 mm 1 mps 716 mmHg 61%
    06:00 +27°C° 0 mm 1 mps 716 mmHg 63%
    07:00 +29°C° 0 mm 2 mps 717 mmHg 58%
    08:00 +30°C° 0 mm 2 mps 718 mmHg 54%
    09:00 +33°C° 0 mm 3 mps 719 mmHg 49%
    10:00 +35°C° 0 mm 2 mps 718 mmHg 39%
    11:00 +38°C° 0 mm 2 mps 718 mmHg 29%
    12:00 +40°C° 0 mm 2 mps 718 mmHg 19%
    13:00 +40°C° 0 mm 2 mps 717 mmHg 18%
    14:00 +40°C° 0 mm 2 mps 716 mmHg 16%
    15:00 +41°C° 0 mm 2 mps 715 mmHg 15%
    16:00 +40°C° 0 mm 2 mps 716 mmHg 15%
    17:00 +39°C° 0 mm 2 mps 716 mmHg 14%
    18:00 +38°C° 0 mm 2 mps 716 mmHg 14%
    19:00 +35°C° 0 mm 1 mps 716 mmHg 13%
    20:00 +34°C° 0 mm 1 mps 717 mmHg 11%
    21:00 +32°C° 0 mm 1 mps 717 mmHg 9%
    22:00 +31°C° 0 mm 1 mps 717 mmHg 9%
    23:00 +30°C° 0 mm 1 mps 717 mmHg 10%

    26 February, Tuesday

    Time Temperature Precipitation Wind Pressure Humidity
    00:00 +27°C° 0 mm 0 mps 717 mmHg 10%
    01:00 +29°C° 0 mm 1 mps 717 mmHg 15%
    02:00 +28°C° 0 mm 1 mps 717 mmHg 21%
    03:00 +28°C° 0 mm 1 mps 716 mmHg 26%
    04:00 +27°C° 0 mm 1 mps 716 mmHg 39%
    05:00 +27°C° 0 mm 2 mps 717 mmHg 51%
    06:00 +26°C° 0 mm 2 mps 717 mmHg 64%
    07:00 +28°C° 0 mm 2 mps 718 mmHg 58%
    08:00 +30°C° 0 mm 2 mps 718 mmHg 52%
    09:00 +32°C° 0 mm 2 mps 719 mmHg 46%
    10:00 +36°C° 0 mm 1 mps 719 mmHg 36%
    11:00 +40°C° 0 mm 1 mps 719 mmHg 26%
    12:00 +40°C° 0 mm 0 mps 719 mmHg 15%
    13:00 +40°C° 0 mm 0 mps 718 mmHg 15%
    14:00 +40°C° 0 mm 0 mps 717 mmHg 15%
    15:00 +40°C° 0 mm 0 mps 716 mmHg 14%
    16:00 +41°C° 0 mm 1 mps 716 mmHg 15%
    17:00 +40°C° 0 mm 1 mps 716 mmHg 17%
    18:00 +37°C° 0 mm 1 mps 716 mmHg 18%
    19:00 +37°C° 0 mm 1 mps 717 mmHg 17%
    20:00 +36°C° 0 mm 1 mps 717 mmHg 17%
    21:00 +36°C° 0 mm 1 mps 718 mmHg 17%
    22:00 +35°C° 0 mm 1 mps 718 mmHg 15%
    23:00 +34°C° 0 mm 1 mps 718 mmHg 14%

    27 February, Wednesday

    Time Temperature Precipitation Wind Pressure Humidity
    00:00 +34°C° 0 mm 1 mps 718 mmHg 13%
    01:00 +33°C° 0 mm 1 mps 717 mmHg 16%
    02:00 +31°C° 0 mm 1 mps 717 mmHg 20%
    03:00 +28°C° 0 mm 0 mps 716 mmHg 23%
    04:00 +29°C° 0 mm 1 mps 717 mmHg 28%
    05:00 +29°C° 0 mm 1 mps 717 mmHg 33%
    06:00 +28°C° 0 mm 1 mps 718 mmHg 37%
    07:00 +30°C° 0 mm 1 mps 718 mmHg 36%
    08:00 +31°C° 0 mm 1 mps 719 mmHg 34%
    09:00 +34°C° 0 mm 2 mps 720 mmHg 33%
    10:00 +36°C° 0 mm 1 mps 719 mmHg 26%
    11:00 +40°C° 0 mm 1 mps 719 mmHg 20%
    12:00 +40°C° 0 mm 0 mps 718 mmHg 13%
    13:00 +43°C° 0 mm 1 mps 717 mmHg 13%
    14:00 +43°C° 0 mm 1 mps 717 mmHg 12%
    15:00 +42°C° 0 mm 1 mps 716 mmHg 11%
    16:00 +41°C° 0 mm 1 mps 716 mmHg 12%
    17:00 +39°C° 0 mm 1 mps 716 mmHg 13%
    18:00 +37°C° 0 mm 1 mps 716 mmHg 14%
    19:00 +36°C° 0 mm 1 mps 717 mmHg 15%
    20:00 +35°C° 0 mm 1 mps 717 mmHg 17%
    21:00 +32°C° 0 mm 0 mps 718 mmHg 18%
    22:00 +33°C° 0.1 mm 1 mps 718 mmHg 24%
    23:00 +32°C° 0.1 mm 2 mps 718 mmHg 30%

    28 February, Thursday

    Time Temperature Precipitation Wind Pressure Humidity
    00:00 +31°C° 0.1 mm 3 mps 718 mmHg 36%
    01:00 +30°C° 0.5 mm 3 mps 718 mmHg 47%
    02:00 +29°C° 0.5 mm 3 mps 717 mmHg 58%
    03:00 +29°C° 0.5 mm 3 mps 717 mmHg 69%
    04:00 +28°C° 0.7 mm 3 mps 717 mmHg 70%
    05:00 +28°C° 0.7 mm 3 mps 718 mmHg 72%
    06:00 +27°C° 0.7 mm 2 mps 718 mmHg 74%
    07:00 +28°C° 0.4 mm 3 mps 719 mmHg 68%
    08:00 +29°C° 0.4 mm 3 mps 719 mmHg 62%
    09:00 +30°C° 0.4 mm 3 mps 720 mmHg 56%
    10:00 +31°C° 0.1 mm 3 mps 720 mmHg 53%
    11:00 +33°C° 0.1 mm 3 mps 720 mmHg 50%
    12:00 +33°C° 0.1 mm 3 mps 719 mmHg 46%
    13:00 +33°C° 0 mm 3 mps 719 mmHg 45%
    14:00 +33°C° 0 mm 3 mps 718 mmHg 43%
    15:00 +33°C° 0 mm 3 mps 718 mmHg 42%
    16:00 +33°C° 0 mm 3 mps 718 mmHg 46%
    17:00 +31°C° 0 mm 3 mps 718 mmHg 49%
    18:00 +30°C° 0 mm 3 mps 719 mmHg 53%
    19:00 +29°C° 0 mm 2 mps 719 mmHg 55%
    20:00 +29°C° 0 mm 2 mps 720 mmHg 57%
    21:00 +28°C° 0 mm 2 mps 720 mmHg 60%
    22:00 +28°C° 0.1 mm 2 mps 720 mmHg 62%
    23:00 +28°C° 0.1 mm 2 mps 720 mmHg 64%
    Show more